{"data":{"norad_id":58701,"epoch":"2026-05-25T05:05:35.565216Z","epoch_age_seconds":50027,"freshness":"FRESH","line1":"1 58701U 24004B   26145.21221719  .00005032  00000+0  19568-3 0  9995","line2":"2 58701  97.4623 330.6656 0007545  78.3206 281.8879 15.26471569132274","mean_motion":15.26471569,"eccentricity":0.0007545,"inclination_deg":97.4623,"raan_deg":330.6656,"arg_perigee_deg":78.3206,"mean_anomaly_deg":281.8879,"bstar":0.00019568,"rev_number":13227,"period_min":94.335199504787,"perigee_km":481.19087481157,"apogee_km":491.54941609406,"semimajor_km":6864.5071454528,"source":"CELESTRAK","updated_at":"2026-05-25T13:38:12.260174Z"}}